SCP
0 0 0 0 0 0 0 0 0 0 0 0 0 0 0 0 0 0 0 0 0 0 0 0 0 0 0 0 0 0 0 0 0 1 0 0 0 0 1 1 0 0 0
0 0 0 0 0 0 0 0 0 0 0 1 1 1 1 0 0 0 0 0 0 0 0 0 0 0 0 0 0 0 0 0 0 0 0 0 0 0 0 0 0 0 0
0 0 0 0 0 0 0 0 0 0 0 0 0 1 1 0 0 0 0 0 0 0 0 0 0 0 0 0 0 0 0 0 0 0 0 0 0 0 0 0 0 0 0
0 0 0 0 0 0 0 0 0 0 0 0 0 0 0 0 0 0 0 0 0 0 0 0 0 0 0 0 0 0 0 0 0 0 0 0 0 0 0 0 0 0 0
0 0 0 0 0 0 0 0 0 0 0 0 0 0 0 0 0 0 0 0 0 0 0 0 0 0 0 0 0 0 0 0 0 -0 0 0 0 0 0 0 0 0 0
0 0 0 0 0 0 0 0 0 0 0 0 0 0 0 0 0 0 0 0 0 0 0 0 0 0 0 0 0 0 0 0 0 0 0 0 0 0 0 0 0 0 0
0 0 0 0 0 0 0 0 0 0 0 0 0 0 0 0 0 0 0 0 0 0 0 0 0 0 0 0 0 0 0 0 0 0 0 0 0 0 0 0 0 0 0
0 0 0 0 0 0 0 0 0 0 0 0 0 0 0 0 0 0 0 0 0 0 0 0 0 0 0 0 0 0 0 0 0 -0 0 0 0 0 0 0 0 0 0
0 0 0 0 0 0 0 0 0 0 0 0 0 0 0 0 0 0 0 0 0 0 0 0 0 0 0 0 0 0 0 0 0 0 0 0 -0 0 0 0 0 0 0
0 0 0 0 0 0 0 0 0 0 0 0 0 0 0 0 0 0 0 0 0 0 0 0 0 0 0 0 0 0 0 0 0 0 0 0 0 0 0 0 0 0 0
0 0 0 0 0 0 0 0 0 0 0 0 0 0 0 0 0 0 0 0 0 0 0 0 0 0 0 0 0 0 0 0 0 0 0 0 0 0 0 0 0 0 0
0 0 0 0 0 0 0 0 0 0 0 0 0 0 0 0 0 0 0 0 0 0 0 0 0 0 0 0 0 0 0 0 0 0 0 0 0 0 0 0 0 0 0
0 0 0 0 0 0 0 0 0 0 0 0 0 0 0 0 0 0 0 0 0 0 0 0 0 0 0 0 0 0 0 0 0 0 0 0 0 0 0 0 0 0 0
0 0 0 0 0 0 0 0 0 0 0 0 0 0 0 0 0 0 0 0 0 0 0 0 0 0 0 0 0 0 0 0 0 0 0 0 0 0 0 0 0 0 0
0 0 0 0 0 0 0 0 0 0 0 0 0 0 0 0 0 0 0 0 0 0 0 0 0 0 0 0 0 0 0 0 0 0 0 0 0 0 0 0 0 0 0
0 0 0 0 0 0 0 0 0 0 0 0 0 0 0 0 0 0 0 0 0 0 0 0 0 0 0 0 0 0 0 0 0 0 0 0 0 0 0 0 0 0 0
0 0 0 0 0 0 0 0 0 0 0 0 0 0 0 0 0 0 0 0 0 0 0 0 0 0 0 0 0 0 0 0 0 0 0 0 0 0 0 0 0 0 0
0 0 0 0 0 0 0 0 0 0 0 0 0 0 0 0 0 0 0 0 0 0 0 0 0 0 0 0 0 0 0 0 0 0 0 0 0 0 0 0 0 0 0
0 0 0 0 0 0 0 0 0 0 0 0 0 0 0 0 0 0 0 0 0 0 0 0 0 0 0 0 0 0 0 0 0 0 0 0 0 0 0 0 0 0 0
0 0 0 0 0 0 0 0 0 0 0 0 0 0 0 0 0 0 0 0 0 0 0 0 0 0 0 0 0 0 0 0 0 0 0 0 0 0 0 0 0 0 0
0 0 0 0 0 0 0 0 0 0 0 0 0 0 0 0 0 0 0 0 0 0 0 0 0 0 0 0 0 0 0 0 0 0 0 0 0 0 0 0 0 -0 0
0 0 0 0 0 0 0 0 0 0 0 0 0 0 0 0 0 0 0 0 0 0 0 0 0 0 0 0 0 0 0 0 0 0 0 0 0 0 0 -0 0 0 0
0 0 0 0 0 0 0 0 0 0 0 0 0 0 0 0 0 0 0 0 0 0 0 0 0 0 0 0 0 0 0 0 -0 0 -0 0 -0 -0 -0 -0 -0 0 -0
0 0 0 0 0 0 0 0 0 0 0 0 0 0 0 0 0 0 0 0 0 0 0 0 0 -0 -0 0 -0 -0 -0 -0 -0 0 0 0 0 -0 0 0 0 0 0
0 0 0 -0 0 0 0 0 0 0 0 0 0 0 0 0 0 0 0 0 0 0 0 0 0 0 0 0 0 0 0 0 0 0 0 0 0 0 0 0 0 0 0
0 0 0 0 0 0 0 0 0 0 0 0 0 0 0 0 0 0 0 0 0 0 0 0 0 0 0 0 0 0 0 0 0 0 0 0 0 0 0 0 0 0 0
Wind_Speed_500mb
38 33 34 32 33 38 46 50 60 59 55 53 48 51 48 49 48 43 43 45 46 52 57 59 66 61 58 55 52 54 54 47 49 55 60 63 60 62 57 52 52 51 49
33 26 22 19 28 29 32 43 48 59 58 49 46 51 54 51 53 54 54 53 52 54 60 63 71 76 75 69 58 48 47 48 54 56 61 57 58 61 60 55 55 52 52
27 20 16 16 16 26 34 34 35 40 55 48 50 45 42 40 45 49 50 52 47 45 54 53 54 61 78 85 77 55 34 27 60 72 73 38 38 65 66 67 63 61 62
24 19 16 14 17 19 22 29 34 39 47 46 43 46 45 48 52 52 47 51 55 53 57 60 65 59 62 77 70 66 55 71 64 60 95 83 42 45 43 69 75 72 73
25 21 18 16 17 14 15 16 19 21 32 36 43 48 49 48 49 50 47 48 55 55 50 50 53 52 51 46 55 65 84 76 93 87 46 84 73 61 45 52 63 82 80
29 26 23 20 19 15 11 8 8 13 19 22 27 35 29 31 32 29 30 33 36 40 47 45 49 51 52 56 60 59 62 85 70 80 74 71 44 41 51 63 65 71 72
33 29 21 16 10 7 4 4 5 5 6 8 13 21 25 23 19 18 21 21 21 24 28 31 33 33 36 42 45 48 58 67 67 58 64 62 78 67 75 73 80 68 59
31 31 27 21 13 10 10 10 10 8 8 9 9 10 9 8 10 11 12 15 19 20 22 26 30 34 35 34 37 42 49 66 70 72 73 79 88 93 91 73 73 67 71
46 37 26 18 15 13 14 14 12 12 13 12 11 10 10 11 12 15 17 19 21 22 21 23 26 30 33 35 39 39 40 54 70 79 85 84 94 90 86 82 80 78 62
47 41 33 23 19 17 16 14 14 14 15 14 12 10 10 11 12 13 15 19 22 24 24 24 24 26 29 33 36 37 41 44 51 53 62 71 83 82 72 75 75 85 93
57 51 41 27 24 24 21 17 16 17 17 16 11 8 8 9 11 14 18 20 22 25 27 28 28 27 26 28 32 37 37 40 43 48 53 61 59 62 67 74 67 62 70
68 60 47 40 35 29 25 21 20 17 17 15 13 9 9 10 11 13 17 20 23 25 28 31 33 36 36 32 30 34 41 45 44 43 42 43 46 50 55 57 66 71 64
75 68 59 55 45 38 30 25 20 16 14 17 19 14 12 11 10 11 13 15 19 25 30 33 37 39 38 34 32 29 28 32 35 36 37 38 37 38 40 44 51 58 63
87 79 69 66 55 43 35 32 26 23 20 19 23 21 15 12 11 10 11 14 18 24 27 30 33 35 37 34 33 32 27 25 25 26 24 25 21 24 36 44 50 47 51
78 89 84 77 63 51 45 40 35 29 25 21 19 20 22 16 13 12 15 18 21 22 24 25 26 26 28 32 35 26 22 25 28 27 23 23 18 14 20 37 49 46 46
66 68 74 81 71 60 56 49 41 37 31 24 21 26 26 21 16 16 17 23 23 21 19 20 23 19 22 26 32 24 22 22 29 36 38 41 39 30 26 33 35 38 38
24 61 86 91 78 72 61 52 46 36 37 32 25 27 29 27 18 19 20 22 25 25 22 19 22 23 22 21 20 18 21 26 24 21 24 22 29 36 24 27 23 14 27
33 36 63 91 88 75 67 61 52 46 41 40 32 27 29 26 20 19 21 18 24 25 22 21 22 26 23 18 13 20 17 21 24 25 20 25 24 7 9 9 19 15 23
33 32 38 65 87 79 75 76 59 58 48 47 38 29 28 25 20 17 17 21 25 26 18 14 19 23 27 21 20 16 15 19 20 21 25 19 10 24 13 12 7 8 11
36 33 26 44 75 86 72 79 68 62 56 51 40 32 31 30 24 19 18 22 22 15 10 15 21 24 21 22 20 20 16 19 17 8 19 24 21 12 21 17 20 18 24
43 32 25 25 36 63 74 77 67 58 50 45 41 40 37 35 29 22 20 18 15 11 9 14 23 28 20 24 25 20 16 21 8 3 11 16 19 18 19 19 17 13 12
49 41 36 23 22 25 52 62 57 48 45 47 50 45 41 42 33 26 20 15 13 7 5 6 11 12 13 22 19 25 20 19 12 4 7 7 10 5 7 6 12 16 12
51 44 40 45 40 47 44 37 41 61 53 55 52 45 43 46 39 34 32 25 20 12 11 11 11 7 6 10 17 16 19 21 21 14 16 12 10 4 6 12 12 14 15
49 45 46 41 41 52 62 64 49 66 56 51 48 44 48 46 44 41 42 41 35 24 19 20 12 6 7 11 19 20 18 15 13 10 15 26 30 22 18 11 12 17 19
51 46 47 53 48 26 38 67 72 68 61 47 42 40 46 47 46 46 42 42 41 32 26 26 23 23 24 17 17 19 23 22 17 22 28 25 19 20 21 22 20 18 23
53 56 50 49 52 42 33 41 60 71 64 58 45 40 51 50 48 47 43 41 40 36 30 30 31 30 25 17 20 30 39 36 30 36 36 33 31 28 23 17 13 14 16
Wind_Direction_500mb
137 143 146 154 176 192 211 208 215 223 224 225 222 231 238 244 239 234 231 231 238 246 249 245 240 241 241 241 246 254 259 257 254 243 235 225 225 228 230 229 226 228 231
138 139 142 151 156 166 185 204 212 217 223 225 225 234 240 240 239 243 243 249 247 251 252 253 252 248 246 241 240 248 257 249 239 231 230 228 225 225 226 232 234 237 240
152 152 156 166 168 173 178 181 181 203 215 221 228 236 239 238 238 241 239 243 248 253 253 256 258 259 254 244 243 246 298 307 253 242 236 227 220 227 224 228 233 239 244
154 158 162 171 188 188 182 198 208 203 206 217 226 238 245 245 250 251 254 256 257 264 271 271 272 269 259 256 253 242 264 287 268 292 246 236 223 207 223 236 235 237 238
152 138 137 138 144 165 192 192 206 214 222 222 229 238 242 245 253 257 259 266 270 275 278 279 280 276 257 247 251 264 257 259 249 274 268 240 246 249 239 244 242 238 238
147 144 135 125 121 124 139 166 208 229 236 242 246 254 262 258 258 262 268 274 273 272 275 276 281 284 275 271 274 265 267 252 265 270 257 262 289 282 257 258 259 258 251
161 159 152 148 143 149 175 210 215 219 214 230 246 253 257 256 256 259 266 274 282 280 281 289 297 288 285 281 278 277 265 255 262 263 278 253 261 271 275 273 256 264 267
175 183 179 178 181 194 213 224 222 218 209 196 191 202 217 241 261 278 289 297 305 308 307 304 305 303 296 297 283 272 266 245 253 258 263 269 265 273 265 263 259 255 260
188 182 184 184 200 213 219 218 223 228 226 216 211 215 231 256 276 290 298 303 306 308 307 305 304 302 300 297 288 285 273 262 266 267 268 269 267 272 269 263 263 262 237
191 196 191 204 208 218 230 238 241 239 234 229 234 251 268 281 289 298 309 316 320 320 319 317 311 304 298 296 295 290 281 274 273 273 273 271 269 269 274 270 268 263 256
197 199 202 204 207 216 225 235 252 263 267 262 241 244 281 301 312 318 320 323 325 325 323 321 318 310 302 296 291 291 289 284 279 275 273 274 272 271 272 265 256 247 253
200 200 203 203 204 221 230 238 248 260 272 268 256 257 271 283 291 306 317 322 327 326 324 322 324 323 320 314 301 289 286 286 284 283 280 277 276 276 273 270 265 261 254
204 204 204 204 204 214 214 217 225 242 253 245 241 237 241 242 258 288 300 303 310 314 317 318 320 322 323 321 314 304 292 290 291 290 287 287 288 288 282 274 272 265 263
208 207 206 207 207 211 212 211 220 226 231 244 245 246 227 222 239 258 274 290 305 306 306 307 316 324 328 331 327 319 315 310 304 303 310 306 309 316 302 290 277 265 258
213 211 212 209 207 209 210 212 222 226 238 250 258 254 237 226 237 246 261 284 294 296 297 299 309 318 328 330 332 325 314 308 301 289 288 285 269 273 314 326 294 274 263
237 233 229 214 211 213 215 215 218 225 234 243 258 269 263 242 242 262 280 308 306 299 300 289 295 310 325 331 335 344 348 333 314 298 292 285 279 284 307 326 316 290 270
260 242 235 230 217 217 218 218 222 222 232 238 247 263 259 253 264 280 304 306 307 307 298 285 293 290 304 320 349 15 1 352 338 339 335 334 321 279 301 308 347 320 276
352 261 244 237 226 221 221 219 220 225 229 236 245 260 264 262 253 270 290 294 296 312 301 281 289 288 272 293 306 330 349 344 335 347 339 334 13 352 282 290 296 326 84
350 343 244 242 236 224 227 219 213 222 226 233 245 260 269 251 242 260 261 279 292 309 299 291 300 290 272 264 286 302 323 336 315 314 335 351 60 87 56 71 134 113 105
341 344 346 244 233 229 226 222 216 217 224 231 239 252 256 239 239 247 252 270 292 304 284 302 292 287 280 267 275 282 311 336 325 27 55 34 30 46 54 55 60 72 107
319 320 320 348 251 238 234 215 215 222 230 233 237 244 239 231 233 228 243 267 281 258 247 284 300 290 277 250 264 261 290 315 259 85 49 57 39 35 39 26 59 112 63
308 307 302 276 279 270 230 215 216 237 232 232 238 241 233 223 221 218 224 230 191 190 211 274 338 8 264 270 263 257 267 301 189 163 168 346 67 77 40 59 11 34 2
303 308 291 281 265 249 244 224 248 242 228 231 238 235 236 217 211 211 205 204 212 227 244 254 287 320 346 256 254 231 251 257 192 188 211 183 139 105 202 230 293 312 314
291 297 302 282 282 262 241 239 238 231 226 234 235 228 231 216 213 214 219 225 233 231 240 244 240 198 147 128 125 119 118 124 153 183 272 302 313 313 311 298 287 286 279
278 282 293 294 280 279 257 231 228 227 226 230 225 228 225 219 220 222 224 228 234 239 238 244 244 243 243 264 257 265 272 286 287 294 288 296 298 293 296 293 287 278 281
271 273 280 278 286 267 285 254 242 226 226 229 224 229 228 221 221 226 225 228 231 230 230 236 237 239 246 242 258 267 271 272 269 270 277 280 280 280 281 262 273 296 306
Wind_Speed_850mb
38 33 34 32 33 38 46 50 60 59 55 53 48 51 48 49 48 43 43 45 46 52 57 59 66 61 58 55 52 54 54 47 49 55 60 63 60 62 57 52 52 51 49
33 26 22 19 28 29 32 43 48 59 58 49 46 51 54 51 53 54 54 53 52 54 60 63 71 76 75 69 58 48 47 48 54 56 61 57 58 61 60 55 55 52 52
27 20 16 16 16 26 34 34 35 40 55 48 50 45 42 40 45 49 50 52 47 45 54 53 54 61 78 85 77 55 34 27 60 72 73 38 38 65 66 67 63 61 62
24 19 16 14 17 19 22 29 34 39 47 46 43 46 45 48 52 52 47 51 55 53 57 60 65 59 62 77 70 66 55 71 64 60 95 83 42 45 43 69 75 72 73
25 21 18 16 17 14 15 16 19 21 32 36 43 48 49 48 49 50 47 48 55 55 50 50 53 52 51 46 55 65 84 76 93 87 46 84 73 61 45 52 63 82 80
29 26 23 20 19 15 11 8 8 13 19 22 27 35 29 31 32 29 30 33 36 40 47 45 49 51 52 56 60 59 62 85 70 80 74 71 44 41 51 63 65 71 72
33 29 21 16 10 7 4 4 5 5 6 8 13 21 25 23 19 18 21 21 21 24 28 31 33 33 36 42 45 48 58 67 67 58 64 62 78 67 75 73 80 68 59
31 31 27 21 13 10 10 10 10 8 8 9 9 10 9 8 10 11 12 15 19 20 22 26 30 34 35 34 37 42 49 66 70 72 73 79 88 93 91 73 73 67 71
46 37 26 18 15 13 14 14 12 12 13 12 11 10 10 11 12 15 17 19 21 22 21 23 26 30 33 35 39 39 40 54 70 79 85 84 94 90 86 82 80 78 62
47 41 33 23 19 17 16 14 14 14 15 14 12 10 10 11 12 13 15 19 22 24 24 24 24 26 29 33 36 37 41 44 51 53 62 71 83 82 72 75 75 85 93
57 51 41 27 24 24 21 17 16 17 17 16 11 8 8 9 11 14 18 20 22 25 27 28 28 27 26 28 32 37 37 40 43 48 53 61 59 62 67 74 67 62 70
68 60 47 40 35 29 25 21 20 17 17 15 13 9 9 10 11 13 17 20 23 25 28 31 33 36 36 32 30 34 41 45 44 43 42 43 46 50 55 57 66 71 64
75 68 59 55 45 38 30 25 20 16 14 17 19 14 12 11 10 11 13 15 19 25 30 33 37 39 38 34 32 29 28 32 35 36 37 38 37 38 40 44 51 58 63
87 79 69 66 55 43 35 32 26 23 20 19 23 21 15 12 11 10 11 14 18 24 27 30 33 35 37 34 33 32 27 25 25 26 24 25 21 24 36 44 50 47 51
78 89 84 77 63 51 45 40 35 29 25 21 19 20 22 16 13 12 15 18 21 22 24 25 26 26 28 32 35 26 22 25 28 27 23 23 18 14 20 37 49 46 46
66 68 74 81 71 60 56 49 41 37 31 24 21 26 26 21 16 16 17 23 23 21 19 20 23 19 22 26 32 24 22 22 29 36 38 41 39 30 26 33 35 38 38
24 61 86 91 78 72 61 52 46 36 37 32 25 27 29 27 18 19 20 22 25 25 22 19 22 23 22 21 20 18 21 26 24 21 24 22 29 36 24 27 23 14 27
33 36 63 91 88 75 67 61 52 46 41 40 32 27 29 26 20 19 21 18 24 25 22 21 22 26 23 18 13 20 17 21 24 25 20 25 24 7 9 9 19 15 23
33 32 38 65 87 79 75 76 59 58 48 47 38 29 28 25 20 17 17 21 25 26 18 14 19 23 27 21 20 16 15 19 20 21 25 19 10 24 13 12 7 8 11
36 33 26 44 75 86 72 79 68 62 56 51 40 32 31 30 24 19 18 22 22 15 10 15 21 24 21 22 20 20 16 19 17 8 19 24 21 12 21 17 20 18 24
43 32 25 25 36 63 74 77 67 58 50 45 41 40 37 35 29 22 20 18 15 11 9 14 23 28 20 24 25 20 16 21 8 3 11 16 19 18 19 19 17 13 12
49 41 36 23 22 25 52 62 57 48 45 47 50 45 41 42 33 26 20 15 13 7 5 6 11 12 13 22 19 25 20 19 12 4 7 7 10 5 7 6 12 16 12
51 44 40 45 40 47 44 37 41 61 53 55 52 45 43 46 39 34 32 25 20 12 11 11 11 7 6 10 17 16 19 21 21 14 16 12 10 4 6 12 12 14 15
49 45 46 41 41 52 62 64 49 66 56 51 48 44 48 46 44 41 42 41 35 24 19 20 12 6 7 11 19 20 18 15 13 10 15 26 30 22 18 11 12 17 19
51 46 47 53 48 26 38 67 72 68 61 47 42 40 46 47 46 46 42 42 41 32 26 26 23 23 24 17 17 19 23 22 17 22 28 25 19 20 21 22 20 18 23
53 56 50 49 52 42 33 41 60 71 64 58 45 40 51 50 48 47 43 41 40 36 30 30 31 30 25 17 20 30 39 36 30 36 36 33 31 28 23 17 13 14 16
Wind_Direction_850mb
137 143 146 154 176 192 211 208 215 223 224 225 222 231 238 244 239 234 231 231 238 246 249 245 240 241 241 241 246 254 259 257 254 243 235 225 225 228 230 229 226 228 231
138 139 142 151 156 166 185 204 212 217 223 225 225 234 240 240 239 243 243 249 247 251 252 253 252 248 246 241 240 248 257 249 239 231 230 228 225 225 226 232 234 237 240
152 152 156 166 168 173 178 181 181 203 215 221 228 236 239 238 238 241 239 243 248 253 253 256 258 259 254 244 243 246 298 307 253 242 236 227 220 227 224 228 233 239 244
154 158 162 171 188 188 182 198 208 203 206 217 226 238 245 245 250 251 254 256 257 264 271 271 272 269 259 256 253 242 264 287 268 292 246 236 223 207 223 236 235 237 238
152 138 137 138 144 165 192 192 206 214 222 222 229 238 242 245 253 257 259 266 270 275 278 279 280 276 257 247 251 264 257 259 249 274 268 240 246 249 239 244 242 238 238
147 144 135 125 121 124 139 166 208 229 236 242 246 254 262 258 258 262 268 274 273 272 275 276 281 284 275 271 274 265 267 252 265 270 257 262 289 282 257 258 259 258 251
161 159 152 148 143 149 175 210 215 219 214 230 246 253 257 256 256 259 266 274 282 280 281 289 297 288 285 281 278 277 265 255 262 263 278 253 261 271 275 273 256 264 267
175 183 179 178 181 194 213 224 222 218 209 196 191 202 217 241 261 278 289 297 305 308 307 304 305 303 296 297 283 272 266 245 253 258 263 269 265 273 265 263 259 255 260
188 182 184 184 200 213 219 218 223 228 226 216 211 215 231 256 276 290 298 303 306 308 307 305 304 302 300 297 288 285 273 262 266 267 268 269 267 272 269 263 263 262 237
191 196 191 204 208 218 230 238 241 239 234 229 234 251 268 281 289 298 309 316 320 320 319 317 311 304 298 296 295 290 281 274 273 273 273 271 269 269 274 270 268 263 256
197 199 202 204 207 216 225 235 252 263 267 262 241 244 281 301 312 318 320 323 325 325 323 321 318 310 302 296 291 291 289 284 279 275 273 274 272 271 272 265 256 247 253
200 200 203 203 204 221 230 238 248 260 272 268 256 257 271 283 291 306 317 322 327 326 324 322 324 323 320 314 301 289 286 286 284 283 280 277 276 276 273 270 265 261 254
204 204 204 204 204 214 214 217 225 242 253 245 241 237 241 242 258 288 300 303 310 314 317 318 320 322 323 321 314 304 292 290 291 290 287 287 288 288 282 274 272 265 263
208 207 206 207 207 211 212 211 220 226 231 244 245 246 227 222 239 258 274 290 305 306 306 307 316 324 328 331 327 319 315 310 304 303 310 306 309 316 302 290 277 265 258
213 211 212 209 207 209 210 212 222 226 238 250 258 254 237 226 237 246 261 284 294 296 297 299 309 318 328 330 332 325 314 308 301 289 288 285 269 273 314 326 294 274 263
237 233 229 214 211 213 215 215 218 225 234 243 258 269 263 242 242 262 280 308 306 299 300 289 295 310 325 331 335 344 348 333 314 298 292 285 279 284 307 326 316 290 270
260 242 235 230 217 217 218 218 222 222 232 238 247 263 259 253 264 280 304 306 307 307 298 285 293 290 304 320 349 15 1 352 338 339 335 334 321 279 301 308 347 320 276
352 261 244 237 226 221 221 219 220 225 229 236 245 260 264 262 253 270 290 294 296 312 301 281 289 288 272 293 306 330 349 344 335 347 339 334 13 352 282 290 296 326 84
350 343 244 242 236 224 227 219 213 222 226 233 245 260 269 251 242 260 261 279 292 309 299 291 300 290 272 264 286 302 323 336 315 314 335 351 60 87 56 71 134 113 105
341 344 346 244 233 229 226 222 216 217 224 231 239 252 256 239 239 247 252 270 292 304 284 302 292 287 280 267 275 282 311 336 325 27 55 34 30 46 54 55 60 72 107
319 320 320 348 251 238 234 215 215 222 230 233 237 244 239 231 233 228 243 267 281 258 247 284 300 290 277 250 264 261 290 315 259 85 49 57 39 35 39 26 59 112 63
308 307 302 276 279 270 230 215 216 237 232 232 238 241 233 223 221 218 224 230 191 190 211 274 338 8 264 270 263 257 267 301 189 163 168 346 67 77 40 59 11 34 2
303 308 291 281 265 249 244 224 248 242 228 231 238 235 236 217 211 211 205 204 212 227 244 254 287 320 346 256 254 231 251 257 192 188 211 183 139 105 202 230 293 312 314
291 297 302 282 282 262 241 239 238 231 226 234 235 228 231 216 213 214 219 225 233 231 240 244 240 198 147 128 125 119 118 124 153 183 272 302 313 313 311 298 287 286 279
278 282 293 294 280 279 257 231 228 227 226 230 225 228 225 219 220 222 224 228 234 239 238 244 244 243 243 264 257 265 272 286 287 294 288 296 298 293 296 293 287 278 281
271 273 280 278 286 267 285 254 242 226 226 229 224 229 228 221 221 226 225 228 231 230 230 236 237 239 246 242 258 267 271 272 269 270 277 280 280 280 281 262 273 296 306